Overview Statistics Trail Chart Weather Telemetry Raw packets
 

This is the latest recevied weather packets stored in our database for station/object DC9VQ-13. If no packets are shown the sender has not sent any weather packets the latest 10 day(s).

<< 4 5 6 7 8 9 10 >>
Time Temp. Humidity Pressure Rain* Wind** Luminosity Snow
1788554843 20° C 77% 1017.5 hPa 0 mm - - -
1788554221 20.56° C 75% 1017 hPa 0 mm - - -
1788553619 21.11° C 72% 1016.2 hPa 0 mm - - -
1788553017 22.22° C 70% 1016.2 hPa 0 mm - - -
1788552415 22.78° C 68% 1015.8 hPa 0 mm - - -
1788551813 23.33° C 66% 1015.4 hPa 0 mm - - -
1788551211 24.44° C 64% 1015 hPa 0 mm - - -
1788550609 26.11° C 61% 1014.7 hPa 0 mm - - -
1788550007 26.11° C 57% 1014.3 hPa 0 mm - - -
1788549405 26.11° C 57% 1013.8 hPa 0 mm - - -
1788548513 26.67° C 57% 1013.5 hPa 0 mm - - -
1788547907 26.67° C 56% 1013.4 hPa 0 mm - - -
1788547298 26.67° C 56% 1013.3 hPa 0 mm - - -
1788546696 27.22° C 56% 1013.2 hPa 0 mm - - -
1788546095 27.22° C 55% 1013 hPa 0 mm - - -
1788545492 27.78° C 55% 1012.8 hPa 0 mm - - -
1788544890 27.78° C 54% 1012.7 hPa 0 mm - - -
1788544288 28.33° C 53% 1012.7 hPa 0 mm - - -
1788543686 28.33° C 52% 1012.6 hPa 0 mm - - -
1788543083 28.89° C 51% 1012.6 hPa 0 mm - - -
1788542482 29.44° C 50% 1012.5 hPa 0 mm - - -
1788541880 30° C 50% 1012.5 hPa 0 mm - - -
1788541277 30.56° C 48% 1012.5 hPa 0 mm - - -
1788540676 30.56° C 47% 1012.5 hPa 0 mm - - -
1788540073 30.56° C 47% 1012.4 hPa 0 mm - - -

* Rain latest hour (hover to see other rain measurements)
** Current wind speed in m/s (hover to see current wind gust speed)